TimeMST,TemperatureF,Dew PointF,Humidity,Sea Level PressureIn,VisibilityMPH,Wind Direction,Wind SpeedMPH,Gust SpeedMPH,PrecipitationIn,Events,Conditions,WindDirDegrees,DateUTC
12:53 AM,50.0,28.0,43,29.96,10.0,SW,15.0,-,N/A,,Clear,220,2012-11-07 07:53:00
1:53 AM,51.1,26.1,38,29.93,10.0,SSW,11.5,-,N/A,,Clear,210,2012-11-07 08:53:00
2:53 AM,48.9,26.1,41,29.91,10.0,SSE,8.1,-,N/A,,Clear,160,2012-11-07 09:53:00
3:53 AM,44.1,27.0,51,29.91,10.0,South,16.1,-,N/A,,Clear,170,2012-11-07 10:53:00
4:53 AM,39.9,27.0,60,29.94,10.0,NE,9.2,-,N/A,,Clear,40,2012-11-07 11:53:00
5:53 AM,43.0,27.0,53,29.92,10.0,Calm,Calm,-,N/A,,Clear,0,2012-11-07 12:53:00
6:53 AM,48.0,27.0,44,29.87,10.0,SSW,6.9,-,N/A,,Clear,200,2012-11-07 13:53:00
7:53 AM,53.1,27.0,37,29.83,10.0,SW,23.0,-,N/A,,Clear,230,2012-11-07 14:53:00
8:53 AM,59.0,26.1,28,29.81,10.0,WSW,17.3,-,N/A,,Clear,240,2012-11-07 15:53:00
9:53 AM,62.1,25.0,24,29.81,10.0,SW,17.3,-,N/A,,Clear,230,2012-11-07 16:53:00
10:53 AM,66.9,25.0,21,29.78,10.0,SW,10.4,-,N/A,,Clear,230,2012-11-07 17:53:00
11:53 AM,69.1,21.9,17,29.74,10.0,Variable,3.5,-,N/A,,Clear,0,2012-11-07 18:53:00
12:53 PM,71.1,21.0,15,29.71,10.0,South,8.1,-,N/A,,Clear,190,2012-11-07 19:53:00
1:53 PM,72.0,19.9,14,29.68,10.0,South,11.5,-,N/A,,Clear,190,2012-11-07 20:53:00
2:53 PM,72.0,21.0,15,29.66,10.0,South,9.2,-,N/A,,Clear,170,2012-11-07 21:53:00
3:53 PM,70.0,19.9,15,29.67,10.0,SW,13.8,-,N/A,,Clear,230,2012-11-07 22:53:00
4:53 PM,63.0,21.9,21,29.70,10.0,WSW,13.8,-,N/A,,Clear,240,2012-11-07 23:53:00
5:53 PM,61.0,23.0,23,29.70,10.0,SW,13.8,-,N/A,,Clear,230,2012-11-08 00:53:00
6:53 PM,59.0,23.0,25,29.69,10.0,WSW,13.8,-,N/A,,Clear,240,2012-11-08 01:53:00
7:53 PM,57.0,23.0,27,29.70,10.0,WSW,12.7,-,N/A,,Clear,240,2012-11-08 02:53:00
8:53 PM,55.9,24.1,29,29.70,10.0,WSW,13.8,-,N/A,,Unknown,240,2012-11-08 03:53:00
9:53 PM,55.9,24.1,29,29.74,10.0,North,11.5,-,N/A,,Clear,360,2012-11-08 04:53:00
10:13 PM,50.0,33.8,54,29.87,10.0,NNE,19.6,34.5,N/A,,Clear,20,2012-11-08 05:13:00
10:53 PM,44.1,34.0,68,29.84,10.0,NNW,8.1,-,N/A,,Clear,340,2012-11-08 05:53:00
11:53 PM,41.0,32.0,70,29.87,10.0,NNW,13.8,-,N/A,,Clear,330,2012-11-08 06:53:00